Location: Bishop�s Knoyle
(51.0728°N, 2.1714°W)
Time: 02:14:51
(UTC+00:00)

Nauka - Pass Details

Date: 30 September 2021
Orbit: 417 x 423 km, 51.6° (Epoch: 26 October)

Event Time Altitude Azimuth Distance (km) Brightness Sun altitude
Rises 20:38:10 0° 282° (WNW) 2,368 ? -26.4°
Reaches altitude 10° 20:40:41 10° 264° (W) 1,502 ? -26.8°
Enters shadow 20:41:33 14° 251° (WSW) 1,275 ? -26.9°
